GEFSGL_con_prob3kmehi_252.txt.gz
EHI
15 14 14 15 14 13 10 8 6 5 4 2 1 2 3 2 1 0 0 0 0 0 1 3 3 2 1 0 1 1 1 2 2 2 2 1 0 0 0 0 0 0 0
13 13 14 14 15 13 11 9 8 7 6 4 3 3 3 2 1 0 0 0 1 1 2 3 3 2 1 1 1 2 2 3 4 3 2 1 1 0 0 0 0 0 0
12 13 14 14 13 13 12 10 9 8 7 5 4 3 2 1 0 0 0 1 2 3 3 3 2 1 1 2 3 4 4 4 4 4 2 1 1 0 0 0 0 0 0
14 16 16 14 12 12 12 10 8 7 7 5 4 3 1 0 0 1 1 2 3 3 3 3 2 1 3 4 4 4 4 2 3 2 1 1 1 0 0 0 0 0 0
19 19 18 15 13 12 11 10 8 7 6 6 5 3 1 0 0 1 2 4 4 4 4 3 3 3 3 3 2 2 2 2 1 1 0 0 0 0 0 0 0 0 0
22 20 17 15 14 14 13 11 10 8 7 6 5 4 2 1 0 1 3 5 6 7 6 5 5 4 2 1 0 0 1 2 2 1 0 0 0 0 0 0 0 0 0
21 18 15 14 15 16 15 13 12 11 10 8 6 5 4 2 1 0 3 6 9 9 8 6 5 4 1 0 0 0 0 1 1 1 0 0 0 0 0 0 0 0 0
19 16 15 15 16 18 18 15 14 14 13 10 8 7 6 4 1 0 3 7 10 10 8 6 5 3 1 0 0 0 0 0 0 0 0 0 0 0 0 0 0 0 0
16 15 15 17 19 19 18 16 14 14 13 10 9 8 8 7 3 1 3 8 10 10 8 6 4 2 0 0 0 0 0 0 0 0 0 0 0 0 0 0 0 0 0
15 14 16 19 20 19 17 15 12 11 11 10 9 9 9 9 5 2 3 9 12 11 9 6 3 1 0 0 0 0 0 0 0 0 0 0 0 0 0 0 0 0 0
14 15 18 21 21 19 16 14 11 10 10 10 10 9 9 9 7 3 3 8 12 12 10 8 5 1 0 0 0 0 0 0 0 0 0 0 0 0 0 0 0 0 0
14 15 18 21 21 19 16 14 12 11 10 10 10 10 10 10 8 4 2 4 9 10 10 9 6 2 0 0 0 0 0 0 0 0 0 0 0 0 0 0 0 0 0
13 14 16 19 19 17 15 13 12 12 11 12 12 11 10 10 9 5 3 2 4 7 8 7 5 1 0 0 0 0 0 0 0 0 0 0 0 0 0 0 0 0 0
15 14 14 15 16 15 12 11 11 13 14 15 14 11 10 9 8 7 6 5 5 6 5 4 2 1 0 0 0 0 0 0 0 0 0 0 0 0 0 0 0 0 0
19 18 15 13 13 13 12 10 10 12 14 14 13 10 8 6 6 6 7 7 7 6 5 3 2 1 0 0 0 0 0 0 0 0 0 0 0 0 0 0 0 0 0
22 20 17 12 12 14 15 13 10 9 9 8 8 7 5 4 3 3 4 4 4 4 3 3 3 2 1 0 0 0 0 0 0 0 0 0 0 0 0 0 0 0 0
19 19 17 14 13 14 15 14 11 8 6 5 4 3 2 2 2 1 1 1 1 1 1 2 3 3 1 0 0 0 0 0 0 0 0 0 0 1 2 1 1 0 0
15 14 14 14 14 12 12 12 11 10 9 7 4 2 1 1 1 0 0 1 1 1 2 2 4 5 3 1 1 1 1 1 1 0 0 0 1 2 3 3 2 1 0
11 10 10 11 11 11 11 11 11 11 12 10 7 4 2 1 1 1 1 2 2 3 3 2 2 4 4 3 2 2 2 2 2 1 1 1 1 3 3 3 3 1 0
9 6 6 7 8 10 11 11 11 11 12 11 8 6 5 4 3 3 3 3 3 3 3 2 1 1 2 2 3 3 3 3 3 3 2 2 3 3 3 3 3 2 1
8 6 5 7 8 8 10 11 10 10 10 9 7 5 5 5 6 6 5 4 4 3 3 2 1 1 1 2 3 3 3 3 3 3 3 3 3 3 3 3 3 3 3
7 7 7 8 8 8 9 9 9 9 8 6 5 4 4 5 6 6 6 6 5 4 3 3 3 2 2 3 3 3 3 3 3 3 3 3 3 3 2 2 3 3 3
7 7 8 8 8 8 8 9 9 9 7 5 4 3 3 4 4 4 4 5 5 4 3 3 3 3 3 3 3 3 3 3 3 3 3 3 3 3 3 3 3 3 3
6 7 8 8 8 8 9 9 9 8 7 5 4 3 3 3 3 3 3 3 2 2 3 3 3 3 3 3 3 3 3 3 3 3 3 3 3 3 3 3 3 3 3
6 6 8 8 8 8 8 8 7 6 6 5 4 3 3 3 3 2 1 1 0 1 1 2 2 3 3 3 3 3 3 2 2 2 3 3 3 3 3 3 3 3 3
4 5 7 7 7 6 6 5 5 4 4 4 4 3 3 3 2 1 0 0 0 0 0 1 1 2 3 3 3 3 2 1 1 1 2 3 3 3 3 3 3 3 3

GEFSGL_con_prob3kmehi_258.txt.gz
EHI
26 28 30 30 27 25 25 24 21 18 15 11 8 8 8 9 9 9 9 10 12 13 13 11 11 11 12 13 17 20 21 19 17 12 10 11 11 7 2 0 1 2 1
23 27 30 32 32 30 27 24 20 17 13 10 9 9 10 12 13 11 9 9 11 13 13 12 12 12 13 15 18 19 20 20 18 15 12 12 11 7 3 0 0 1 1
23 26 30 33 35 32 28 25 20 15 13 11 12 12 13 14 16 13 10 9 11 12 13 13 13 14 16 18 19 19 19 19 19 17 14 11 9 5 2 0 0 0 0
30 30 32 35 35 32 29 26 22 18 16 17 17 15 14 15 15 13 11 11 12 12 13 14 14 15 18 19 18 19 19 19 19 17 12 9 6 2 0 0 0 0 0
39 37 37 38 37 35 31 28 26 23 23 25 23 19 16 15 12 10 10 13 15 14 16 17 17 18 18 15 13 14 16 17 17 15 11 8 6 3 1 0 0 0 0
44 43 41 40 39 37 35 33 32 29 28 29 28 25 21 14 7 5 8 13 17 19 20 21 21 20 17 12 8 7 7 9 12 12 11 11 9 6 3 1 0 0 0
45 44 42 40 38 38 38 38 37 34 32 31 30 30 26 17 7 3 5 11 18 22 23 23 22 21 18 14 10 7 6 6 8 10 13 14 12 10 7 4 1 1 0
45 44 41 39 38 39 40 40 39 37 34 32 31 30 27 20 10 3 3 10 17 22 22 21 22 21 18 16 13 12 12 10 7 7 10 11 9 9 9 6 3 1 1
44 41 38 37 38 40 41 40 39 37 35 32 30 27 24 18 11 4 4 12 18 20 20 19 19 18 15 13 13 13 13 12 8 5 4 4 3 4 6 6 4 2 1
40 37 36 37 38 40 42 42 40 38 34 31 29 25 21 17 12 6 6 14 19 19 18 17 16 14 10 8 9 10 10 10 9 7 4 3 2 2 3 4 3 2 1
37 35 35 37 39 40 42 42 40 38 34 31 29 27 23 19 15 9 7 12 17 18 17 17 15 11 6 4 5 7 8 8 9 9 9 8 7 6 5 4 3 3 3
42 37 34 35 36 38 38 37 35 33 30 28 28 29 28 24 18 12 6 6 11 15 16 15 14 9 4 1 2 4 4 5 7 9 11 11 10 9 7 5 4 4 4
48 42 36 33 32 32 31 28 25 24 23 22 24 28 29 27 20 14 7 3 5 10 12 11 9 6 3 2 2 1 2 4 7 9 10 11 10 8 7 5 5 4 4
48 45 39 33 29 26 25 22 19 17 18 19 22 25 27 26 20 15 10 7 5 6 8 8 6 6 6 5 5 4 3 6 8 8 9 9 8 6 5 4 4 3 3
43 42 37 31 26 22 20 17 14 14 14 16 17 19 20 20 16 12 10 9 7 7 8 9 10 10 10 9 10 9 7 7 7 7 7 7 7 5 4 3 3 3 3
37 35 32 28 23 18 17 15 12 10 8 8 9 9 10 9 7 6 6 5 5 5 8 12 13 13 12 12 12 12 11 9 8 8 7 7 7 6 4 3 3 3 3
31 29 28 26 21 17 16 16 15 11 6 4 2 2 2 2 2 2 1 2 2 4 8 12 14 13 13 13 13 13 13 11 10 9 9 9 8 7 6 4 3 3 3
28 27 27 26 22 19 18 18 18 15 11 8 5 2 1 0 0 0 0 1 4 6 10 12 13 13 13 13 13 13 13 12 11 9 9 8 8 7 6 5 4 3 3
27 27 28 28 24 21 20 19 18 16 14 13 11 7 3 2 2 1 1 4 8 10 12 13 13 13 13 13 12 12 12 11 10 9 8 7 7 6 5 4 3 3 3
26 24 24 24 22 19 19 18 16 14 12 13 13 11 8 6 6 5 4 6 10 11 12 13 13 13 13 12 11 10 10 10 10 9 7 6 6 5 4 3 3 3 3
21 18 16 17 18 17 16 16 14 11 10 11 12 12 10 9 9 8 7 8 10 11 12 12 12 12 12 10 9 8 8 9 9 9 7 5 4 4 3 3 3 3 3
14 12 11 12 14 13 12 11 9 8 8 8 10 10 9 9 10 10 9 9 9 9 11 12 12 11 9 8 6 6 6 7 8 8 6 4 3 3 3 3 3 3 3
10 10 9 9 10 9 7 6 5 5 5 5 7 8 8 9 10 9 9 8 7 7 9 11 10 8 6 5 4 4 4 4 5 6 5 4 3 3 3 3 3 3 3
10 10 10 9 8 7 7 6 5 4 4 4 5 7 8 9 8 8 7 6 6 5 6 7 6 4 3 3 2 3 3 3 3 4 4 3 3 3 3 3 3 3 3
11 13 13 12 10 9 9 9 8 7 6 5 6 7 8 8 7 6 5 4 4 4 4 4 2 1 1 1 1 1 2 2 2 3 3 3 3 3 3 3 3 3 3
13 14 15 14 12 10 10 10 9 9 8 8 8 8 7 7 7 5 3 2 2 3 4 2 1 0 0 0 0 0 1 1 1 2 3 3 3 3 3 3 3 3 3

GEFSGL_con_prob3kmehi_264.txt.gz
EHI
58 52 49 50 51 49 44 40 37 35 34 33 32 30 28 26 25 25 25 25 23 21 21 22 23 23 22 21 18 15 15 17 19 17 15 14 14 12 9 6 4 2 1
55 52 48 49 51 50 46 42 40 38 38 37 35 33 31 29 28 28 27 26 24 22 21 22 24 24 24 24 20 17 17 19 19 18 16 16 15 13 10 7 4 2 2
55 54 52 51 52 51 48 45 44 42 40 39 37 35 34 33 32 31 29 27 25 23 23 23 25 26 26 25 21 19 20 20 19 18 17 16 16 14 11 8 4 2 2
62 60 60 59 56 54 52 49 47 44 41 40 38 37 37 38 37 34 30 27 27 27 26 26 26 25 25 23 20 19 20 19 18 18 17 15 15 14 12 8 4 1 1
67 65 65 64 60 58 56 53 50 47 44 43 42 41 41 38 35 33 30 29 30 30 29 27 25 23 21 19 18 18 19 18 18 18 17 16 15 15 12 9 5 2 1
65 63 63 63 61 59 56 54 54 51 47 46 46 45 42 34 26 22 23 26 30 31 29 26 23 20 18 17 16 16 15 15 15 17 18 17 16 16 14 11 8 5 3
60 59 59 61 60 58 54 55 56 54 50 48 48 47 42 32 19 11 10 17 24 29 29 26 22 20 19 17 16 15 13 12 12 15 16 17 16 17 16 13 10 9 8
58 57 59 61 60 57 55 56 56 53 51 51 49 47 42 33 21 11 7 11 20 27 29 27 24 21 18 16 15 14 13 12 12 14 16 16 14 14 15 14 12 10 11
62 60 61 62 60 58 58 57 54 50 50 51 49 45 41 33 24 14 9 12 19 24 27 26 23 18 15 14 13 14 14 13 13 14 14 13 11 9 10 11 11 11 10
65 65 64 62 60 59 58 57 53 49 47 46 45 42 38 32 24 14 10 14 20 23 25 24 19 14 12 11 12 12 13 13 13 13 12 11 9 8 7 8 11 11 10
62 63 64 60 56 55 57 56 52 47 44 40 38 37 36 32 24 15 10 13 19 23 23 21 17 12 9 8 9 11 12 12 12 12 11 11 12 11 9 8 10 10 10
60 61 61 58 52 50 53 53 49 45 41 36 32 32 33 32 25 16 10 9 14 20 20 16 12 8 5 3 5 7 8 9 11 11 12 13 14 14 11 10 10 10 9
61 61 62 60 52 47 46 46 44 42 39 35 32 31 32 31 26 19 11 5 6 12 14 11 6 3 1 1 1 3 5 8 10 12 14 15 14 13 12 10 10 9 9
59 59 59 57 51 44 41 41 41 38 36 35 34 32 32 30 26 21 15 8 6 8 9 7 4 3 3 3 3 4 7 9 11 14 16 15 14 13 12 10 9 9 9
55 55 52 47 43 40 36 34 32 29 27 26 27 27 25 23 20 17 14 12 9 8 8 8 8 7 7 7 8 9 10 12 13 15 16 15 13 12 11 10 9 9 9
53 51 45 38 34 34 30 26 21 16 12 11 13 13 12 10 9 7 6 7 6 6 7 9 10 11 11 10 10 10 11 12 14 16 16 16 14 12 11 9 9 9 9
49 45 40 33 29 27 25 22 18 12 7 4 3 3 2 2 1 1 0 1 1 3 6 9 11 12 12 12 11 10 11 11 13 15 17 16 15 12 10 10 10 10 10
43 39 34 29 25 23 22 20 19 16 13 9 5 2 0 0 0 0 0 1 2 5 10 12 12 12 12 12 11 11 12 12 12 13 15 16 14 12 10 10 10 9 9
35 32 28 25 23 20 17 16 18 19 17 13 9 5 2 1 2 1 1 3 6 9 13 14 13 12 11 11 11 12 13 12 11 10 11 13 12 10 9 9 9 9 8
28 25 21 21 20 17 13 12 14 17 17 14 12 8 5 4 5 5 5 7 9 12 14 15 14 13 12 11 11 11 11 10 8 7 8 9 9 8 8 8 7 8 8
24 22 18 19 19 14 10 9 10 12 14 13 11 9 6 5 7 8 9 11 12 12 13 14 14 13 12 11 9 8 8 7 6 4 5 6 6 7 6 5 5 6 7
21 20 20 20 18 13 10 9 8 9 11 12 10 7 5 5 7 9 11 12 13 12 10 10 11 11 11 9 7 6 6 6 5 4 3 4 4 5 5 4 4 5 6
18 19 20 20 18 14 11 11 10 10 11 12 11 8 7 6 7 7 8 8 9 9 8 7 7 7 8 7 6 5 5 5 3 3 2 2 3 3 3 3 3 4 4
16 17 18 19 17 15 13 12 11 11 11 12 11 9 8 6 4 4 4 4 6 7 7 7 6 5 5 5 4 3 3 2 1 1 1 1 1 1 1 2 2 2 2
13 14 15 16 16 15 13 12 10 9 8 8 8 7 5 3 2 1 2 3 3 5 6 6 5 4 3 2 2 1 1 0 0 0 0 0 0 0 0 1 1 1 1
11 12 12 14 14 14 13 11 9 6 4 4 5 4 2 1 0 0 1 1 1 2 4 4 4 2 1 1 1 0 0 0 0 0 0 0 0 0 0 0 0 0 0

GEFSGL_con_prob3kmehi_270.txt.gz
EHI
33 33 33 30 23 18 17 18 17 16 16 14 12 10 7 5 3 3 4 4 3 3 3 5 6 5 5 5 6 6 8 10 9 7 5 4 4 4 2 0 1 1 1
34 35 34 30 26 23 21 21 21 20 18 16 14 11 8 6 6 6 5 4 3 3 4 6 7 6 6 6 7 8 10 11 11 9 7 6 6 5 2 0 0 0 0
36 36 34 30 28 28 26 25 24 23 20 19 16 13 11 10 10 9 7 4 4 4 4 6 8 9 9 9 10 11 12 12 12 11 8 7 6 4 2 0 0 0 0
39 37 34 31 30 30 29 27 26 23 22 20 18 15 14 13 13 12 9 6 6 5 5 6 9 11 12 13 13 13 13 12 11 9 8 6 5 3 2 1 1 0 0
43 41 37 34 30 30 29 27 25 23 22 20 19 18 17 15 14 13 10 8 8 7 5 5 7 10 12 13 12 13 12 11 10 8 7 6 4 3 3 2 2 1 1
43 41 38 34 30 27 25 23 22 21 21 20 19 19 18 16 13 11 9 8 8 6 4 3 4 6 9 10 8 8 9 10 10 9 8 7 6 4 3 3 3 3 2
40 38 36 34 30 25 21 18 18 18 18 18 17 17 17 16 13 10 8 8 7 5 4 4 4 5 7 8 6 5 6 8 10 10 9 9 8 6 4 3 3 3 3
36 35 33 33 31 27 22 19 18 17 17 15 14 15 17 16 14 9 8 8 8 6 4 6 8 9 9 9 8 6 6 8 9 9 9 9 9 7 5 4 3 3 3
33 32 32 32 32 30 27 24 21 18 17 15 14 14 15 16 14 9 7 9 9 7 6 6 9 10 10 10 9 8 8 9 9 8 7 7 6 6 6 5 5 5 5
30 30 30 29 30 31 29 25 21 18 17 17 15 14 14 15 13 8 7 10 12 11 9 9 9 9 7 6 7 8 8 8 8 7 6 5 5 5 5 6 8 9 9
28 28 27 25 25 27 26 24 21 19 19 18 15 12 12 13 12 8 5 8 14 16 16 14 12 9 4 2 3 5 5 4 4 5 4 5 7 7 7 6 8 10 11
28 27 25 23 23 23 23 22 20 19 19 17 13 10 9 10 10 8 4 5 11 16 18 16 13 8 4 1 0 1 1 2 2 2 2 5 8 9 9 8 7 8 8
30 28 25 22 21 20 19 19 18 18 17 15 13 11 10 9 8 7 6 4 5 9 12 12 9 6 3 1 0 0 0 2 2 2 2 3 6 8 9 8 7 7 6
30 27 23 20 19 18 16 15 15 17 17 16 15 14 14 13 10 8 7 5 3 4 6 7 5 3 1 0 0 0 0 1 2 2 1 2 5 7 7 6 6 5 5
26 23 18 17 16 16 14 12 12 14 16 16 15 15 16 15 12 8 5 5 5 4 4 4 3 2 1 0 1 1 1 1 1 1 1 2 5 6 5 4 3 2 2
24 21 17 16 16 16 14 11 9 9 10 9 8 9 10 11 8 4 2 3 4 4 4 4 3 2 2 2 3 3 2 2 2 2 2 2 4 5 4 3 2 2 2
25 23 20 19 19 18 15 13 10 7 5 3 2 2 3 3 2 1 0 1 1 1 2 2 3 3 4 5 5 4 3 3 3 3 2 2 3 3 3 3 3 3 3
23 22 20 20 20 17 15 15 13 10 7 4 1 0 0 0 0 0 0 0 1 1 0 1 3 4 5 6 6 5 4 4 3 3 3 2 3 3 3 2 2 3 3
20 18 16 16 16 14 13 14 13 11 8 5 2 0 0 0 1 1 1 1 1 1 0 1 3 4 4 6 6 6 6 5 4 3 3 2 2 2 1 1 1 1 2
18 15 13 12 10 10 10 10 8 7 6 4 2 1 1 1 2 2 2 1 1 1 0 1 2 3 4 5 6 6 5 4 3 2 1 1 1 1 0 0 0 0 1
17 14 11 10 9 8 7 5 4 3 3 3 3 2 2 2 2 1 1 1 0 0 0 0 1 1 2 3 4 4 3 2 1 1 0 0 0 0 0 0 0 0 0
17 15 12 11 10 8 4 3 3 3 3 3 3 2 1 1 1 0 0 0 0 1 1 1 0 0 1 1 2 2 1 0 0 0 0 0 0 0 0 0 0 0 0
18 16 14 11 10 8 5 4 3 4 4 3 2 2 1 1 0 0 0 0 0 1 2 1 0 0 0 0 1 1 0 0 0 0 0 0 0 0 0 0 0 0 0
14 13 12 10 10 9 7 4 3 4 4 2 1 1 2 1 0 0 0 0 0 1 1 1 0 0 0 0 0 0 0 0 0 0 0 0 0 0 0 0 0 0 0
9 9 8 8 8 7 5 3 2 3 3 1 0 1 1 1 0 0 0 0 0 0 0 0 0 0 0 0 0 0 0 0 0 0 0 0 0 0 0 0 0 0 0
7 7 6 7 6 5 4 2 1 2 2 1 0 0 0 0 0 0 0 0 0 0 0 0 0 0 0 0 0 0 0 0 0 0 0 0 0 0 0 0 0 0 0

GEFSGL_con_prob3kmehi_276.txt.gz
EHI
7 7 6 6 5 6 5 5 6 7 6 4 4 3 2 1 1 1 1 0 0 0 0 0 0 0 2 4 5 6 7 7 6 5 6 6 6 4 3 1 0 0 0
8 7 7 7 7 6 6 6 6 5 5 5 5 4 3 2 2 2 2 1 1 1 1 1 0 1 2 4 4 4 4 5 5 4 5 6 6 4 3 2 0 0 0
9 9 9 9 10 8 6 7 6 4 4 6 6 5 4 4 4 4 4 3 2 2 2 2 2 2 3 3 3 3 3 3 4 4 5 6 6 4 3 2 1 0 0
11 12 12 12 12 9 7 6 5 4 5 6 5 3 3 5 6 5 5 4 4 3 3 3 3 3 4 4 4 5 5 5 5 5 6 7 6 4 3 3 2 1 1
12 13 12 12 12 11 8 5 4 3 4 5 4 2 2 3 5 5 6 6 5 4 4 4 4 4 4 3 4 5 6 7 6 6 6 7 6 5 4 3 3 3 2
12 12 11 11 12 11 7 5 4 3 4 5 5 3 2 2 3 4 6 6 5 4 5 6 6 6 4 3 2 3 4 6 7 7 7 7 8 8 6 4 4 4 3
11 10 11 12 12 10 6 5 5 4 6 7 6 4 2 2 2 3 4 5 5 5 5 6 7 6 5 3 3 2 2 4 7 8 8 8 9 10 8 7 6 4 2
11 12 13 15 14 11 8 7 8 8 9 9 7 4 3 3 3 2 3 4 6 6 6 7 7 7 5 5 5 6 5 6 7 8 8 8 8 8 8 8 7 4 2
14 14 14 14 14 13 10 10 11 11 10 9 7 5 4 4 4 3 3 4 6 6 6 6 6 6 5 4 6 9 9 7 6 6 6 6 5 4 5 6 6 6 6
16 16 15 14 15 14 13 12 12 11 9 7 6 6 6 6 6 5 5 6 7 7 7 6 5 4 3 2 5 9 10 7 5 5 5 5 3 2 3 4 6 7 9
16 17 17 17 16 15 13 13 12 10 7 5 6 7 8 8 7 5 5 7 8 9 9 8 5 2 1 0 2 5 6 4 3 4 6 6 5 4 4 4 4 7 8
16 17 19 18 16 14 13 13 13 10 8 6 6 7 8 8 6 4 4 5 7 9 9 9 6 3 1 0 0 1 1 1 2 4 6 6 5 4 3 3 3 4 5
15 17 18 18 15 14 13 13 12 10 9 8 7 7 7 7 7 6 5 4 4 5 7 7 6 3 1 0 0 0 0 1 2 5 5 5 4 3 1 1 1 2 3
16 17 17 16 14 13 12 12 10 9 8 7 6 6 6 6 7 9 9 7 4 4 5 6 5 4 3 2 2 2 1 1 3 4 4 3 2 1 0 0 0 1 2
17 16 15 13 12 11 10 9 7 6 6 6 5 5 6 6 7 9 10 9 6 5 5 6 6 6 7 6 4 3 2 2 2 2 1 1 1 1 1 1 1 1 2
18 16 13 10 10 11 11 8 5 3 4 4 4 4 5 6 5 5 5 5 4 4 5 6 6 7 7 5 3 1 1 1 1 1 1 2 2 2 2 2 2 1 1
20 17 14 12 12 14 14 12 8 6 5 4 3 3 3 4 2 2 1 1 1 1 3 4 4 3 3 2 1 0 0 1 2 2 3 3 3 3 3 3 2 1 0
20 18 17 17 16 17 17 17 14 11 10 6 3 1 1 1 0 0 0 0 0 0 1 2 1 1 0 0 0 0 0 1 2 4 4 3 3 3 2 2 1 0 0
18 17 17 17 16 16 17 17 15 14 12 8 4 1 1 0 0 0 0 0 0 0 0 0 0 0 0 0 0 0 0 1 2 4 5 4 3 1 1 1 0 0 0
13 12 11 11 12 13 15 15 13 12 10 8 5 3 2 1 0 0 0 0 0 0 0 0 0 0 0 0 0 0 1 2 3 4 4 3 2 1 0 0 0 0 0
7 6 6 7 8 10 12 12 10 9 8 7 5 4 3 2 1 1 0 0 0 0 0 0 0 0 0 0 0 0 1 1 1 2 2 2 1 0 0 0 0 0 0
4 3 4 6 6 7 8 8 7 6 6 6 5 4 3 2 1 1 0 0 0 0 0 0 0 0 0 0 0 0 0 0 0 0 1 1 0 0 0 0 0 0 0
3 3 3 4 4 4 4 4 3 4 5 5 4 3 2 1 1 1 0 0 0 0 0 0 0 0 0 0 0 0 0 0 0 0 0 0 0 0 0 0 0 0 0
3 2 1 2 3 4 3 3 3 3 4 3 2 1 1 0 0 0 0 0 0 0 0 0 0 0 0 0 0 0 0 0 0 0 0 0 0 1 0 0 0 0 0
3 2 1 1 3 5 5 4 4 4 3 2 1 0 0 0 0 0 0 0 0 0 0 0 0 0 0 0 0 0 0 0 0 0 0 0 0 0 0 0 0 0 0
3 2 2 3 4 6 6 4 4 4 3 2 2 1 0 0 0 0 0 0 0 0 0 0 0 0 0 0 0 0 0 0 0 0 0 0 0 0 0 0 0 0 0